Theta_e
344 341 338 337 317 313 309 314 322 321 320 330 334 331 327 329 325 316 339 344 346 346 348 350 350 351 351 353 352 350 349 347 346 345 343 342 342 342 341 341 340 339 339 337 336 336 336 337 338
340 340 339 325 310 301 307 318 316 322 328 333 334 332 328 325 334 335 338 345 346 346 345 346 353 355 354 352 349 347 345 343 341 340 339 339 339 339 339 338 338 338 337 336 335 335 335 334 334
346 344 324 315 309 303 309 319 320 324 332 332 328 332 330 327 336 336 343 346 345 344 344 345 353 352 349 348 345 343 342 340 339 339 338 337 336 336 336 335 335 334 334 334 334 333 334 335 334
339 334 325 311 306 314 317 321 324 323 327 331 329 324 333 339 337 342 346 345 343 343 344 350 350 348 346 344 344 342 340 338 337 337 336 336 335 335 334 334 332 332 332 332 331 332 333 333 334
341 327 315 314 311 317 320 326 326 320 327 329 331 324 327 338 344 345 345 346 343 343 343 345 348 346 345 344 342 341 339 337 336 335 335 335 335 335 334 333 331 331 331 330 331 331 331 332 333
329 329 315 309 314 320 322 324 324 325 329 327 326 326 327 340 342 343 345 344 344 341 340 340 346 346 344 343 341 339 337 336 336 336 335 334 335 333 333 333 331 329 330 330 330 330 330 330 331
325 319 314 315 314 317 321 325 318 321 325 326 332 324 329 336 341 345 344 344 342 340 338 338 338 340 344 343 340 338 337 337 336 336 335 334 333 331 333 333 332 329 329 331 332 331 332 331 332
325 320 313 314 311 311 318 322 323 322 320 335 336 324 324 334 341 343 342 342 339 336 335 333 332 333 332 333 340 339 338 337 336 334 332 332 332 331 333 336 335 331 330 330 331 332 332 332 333
326 312 308 311 313 313 317 315 325 325 321 326 332 332 335 339 341 339 337 339 337 333 331 332 330 328 328 329 334 339 339 338 337 335 334 336 323 323 329 332 336 335 332 331 332 333 334 334 335
319 308 312 319 319 314 317 317 320 319 322 326 331 336 338 338 337 335 334 333 334 330 329 331 330 328 327 332 329 328 329 328 327 328 326 327 322 321 326 332 337 339 336 334 335 336 336 335 324
317 310 318 321 323 324 320 318 322 318 314 324 327 331 335 335 335 334 334 334 334 332 330 330 329 328 326 327 326 326 325 326 325 326 326 324 325 323 327 325 326 329 331 326 328 326 324 324 321
318 322 321 322 324 321 317 320 321 323 322 328 333 334 335 334 333 334 333 333 334 332 330 329 329 327 325 325 325 326 325 325 325 326 326 324 323 322 326 326 325 323 324 320 323 323 321 320 321
318 320 322 324 323 319 319 318 320 324 328 332 335 335 333 333 333 334 335 336 334 334 330 329 328 326 325 324 324 323 325 327 328 328 328 325 322 324 323 323 325 323 322 323 321 320 322 320 317
318 320 320 319 320 320 317 316 320 324 328 331 331 331 329 327 328 329 331 330 330 331 332 332 329 328 328 325 323 323 327 328 327 330 328 324 324 322 324 323 323 322 323 323 322 319 317 319 316
319 314 316 316 319 316 317 313 314 320 322 323 327 324 326 327 327 325 331 330 327 328 330 329 329 326 325 326 325 326 327 327 325 325 325 324 322 322 324 323 322 322 322 321 320 320 321 322 321
312 313 305 315 317 317 314 306 319 322 322 320 323 325 324 326 327 332 335 336 332 328 327 328 333 328 327 326 327 325 325 328 326 325 327 327 325 327 325 325 325 324 323 321 320 320 318 317 318
306 300 304 309 314 316 313 309 320 325 324 322 321 323 324 325 331 334 337 335 334 332 331 329 330 329 328 326 327 326 327 327 327 328 329 329 328 329 326 325 325 323 321 321 319 317 317 316 317
301 301 305 305 310 312 311 312 318 323 325 323 321 322 323 321 327 330 337 335 335 335 332 331 331 330 330 330 327 327 329 328 330 331 331 328 327 328 324 322 320 319 319 318 315 313 313 314 316
307 304 303 307 311 308 309 311 314 317 318 321 322 321 319 318 325 334 335 336 334 333 333 334 330 330 329 328 326 325 323 326 327 329 330 330 327 327 322 315 318 316 314 313 313 311 312 311 313
308 306 304 307 311 310 309 308 315 315 313 314 316 317 317 318 329 332 332 332 331 332 329 325 330 329 330 330 326 324 325 326 325 326 327 327 326 322 317 314 314 313 313 312 311 311 308 309 311
306 302 302 303 308 308 308 305 309 315 316 317 318 319 317 318 327 329 329 330 331 330 329 328 325 326 328 324 323 319 322 323 320 320 320 323 322 320 318 316 313 313 314 312 310 310 308 306 309
301 309 307 305 301 295 305 292 304 309 310 314 313 318 317 318 324 324 325 327 328 329 327 322 322 321 323 321 318 317 318 316 317 317 320 319 321 320 319 318 316 314 314 312 312 312 310 308 306
306 311 307 305 299 297 300 295 302 308 306 309 315 323 324 320 326 326 326 327 326 326 321 318 317 317 317 317 318 320 319 317 319 318 317 316 316 318 318 317 316 315 312 312 312 314 312 308 307
312 307 303 299 297 291 297 296 297 302 306 309 315 319 322 322 322 325 325 326 323 324 321 321 321 319 318 317 321 319 316 316 315 314 315 315 313 313 315 316 314 313 313 315 315 315 313 312 308
307 299 291 289 290 289 300 298 300 309 311 310 313 316 318 321 324 323 320 320 322 322 323 324 322 320 320 323 318 317 316 315 312 310 310 310 310 310 310 311 315 314 313 313 313 313 312 309 307
301 299 292 287 288 291 302 296 302 312 315 315 315 316 317 318 323 325 324 320 320 323 320 322 317 312 314 315 310 314 314 313 314 312 309 308 311 310 310 309 309 309 309 309 308 308 308 307 307
302 300 303 296 298 294 299 302 307 312 313 313 312 315 315 315 317 316 316 316 318 320 317 316 313 310 310 311 312 310 310 308 307 309 310 310 310 310 308 306 306 307 308 310 310 308 307 308 308
306 309 299 297 289 288 295 296 297 307 309 312 313 310 314 315 315 314 316 315 313 314 313 311 310 311 311 310 308 307 306 306 306 306 305 304 301 302 303 304 304 305 306 307 309 310 311 310 310
304 300 300 299 296 289 288 293 304 306 308 310 312 313 314 314 314 314 313 313 312 312 312 310 308 307 306 307 306 304 304 305 305 304 303 302 302 303 304 304 304 305 305 306 305 307 307 307 307
307 303 299 293 292 297 295 295 311 309 308 309 313 315 315 316 316 315 314 311 307 308 308 305 305 304 304 305 305 304 303 302 303 303 303 303 303 304 303 304 303 304 304 304 305 306 308 306 305
Wind_Speed
7 4 1 3 5 5 1 2 2 8 2 3 3 7 10 5 1 3 5 12 17 12 10 12 16 15 15 14 14 14 13 12 11 11 10 10 11 11 10 9 8 7 6 6 6 5 5 6 7
2 3 3 2 5 2 4 3 4 11 5 12 12 7 5 3 4 9 8 13 16 12 8 8 16 16 15 15 14 13 12 11 10 9 9 9 9 9 8 8 7 6 5 4 4 4 4 5 5
2 4 4 4 3 5 3 5 10 9 16 7 6 5 5 4 8 11 11 15 14 11 8 10 16 15 15 14 13 13 12 11 10 9 9 8 7 7 6 5 4 3 2 2 1 1 3 4 5
5 5 4 4 4 5 4 4 12 6 6 6 10 7 4 5 15 9 17 16 13 12 10 14 17 16 15 14 13 12 12 10 10 9 9 8 7 6 5 3 1 1 1 1 2 2 3 4 4
5 3 4 3 4 6 11 6 4 3 5 7 3 6 4 7 9 18 17 15 15 12 10 11 17 16 15 15 14 12 11 10 10 9 9 9 8 7 6 4 2 1 2 2 1 1 3 4 4
4 1 1 1 6 10 6 13 5 6 6 8 5 6 4 7 16 14 14 13 13 12 9 10 17 17 16 15 14 13 11 11 10 9 9 8 6 5 6 6 4 3 3 3 3 3 5 6 7
7 3 4 3 6 7 7 7 7 7 8 4 13 5 1 9 14 14 13 13 12 12 12 10 10 14 17 16 15 13 12 11 10 9 7 7 6 5 6 7 5 4 5 5 6 7 7 8 10
4 4 4 5 5 6 5 5 8 10 4 10 9 8 6 13 16 13 12 13 14 13 12 9 7 7 7 9 17 15 14 13 12 10 8 6 6 6 8 8 8 6 6 7 8 8 8 8 10
3 1 3 6 3 5 3 5 4 5 10 4 8 9 7 22 17 14 12 12 12 10 10 9 8 7 7 7 10 15 16 14 12 10 10 7 4 5 8 8 11 11 8 8 10 10 9 9 11
6 2 4 4 11 3 4 8 8 5 6 2 3 5 17 23 18 17 16 14 13 14 12 11 10 8 6 8 7 7 6 5 5 5 6 4 4 5 8 10 13 15 12 10 12 12 10 9 3
6 6 7 6 13 11 11 5 7 7 3 7 11 13 18 21 19 18 17 16 19 17 11 13 13 10 10 8 5 3 3 3 3 6 5 5 4 5 4 3 4 5 9 4 7 6 2 5 4
2 8 5 7 6 6 2 4 3 3 7 10 14 21 21 21 18 19 18 17 16 16 16 15 14 12 11 6 6 5 4 3 3 5 6 4 3 5 5 4 4 4 3 5 5 3 5 6 6
4 1 2 7 7 9 6 2 8 5 8 5 14 16 18 16 16 14 16 16 12 14 16 16 14 12 12 7 4 4 5 4 6 6 6 5 4 5 1 3 2 3 2 4 4 4 3 3 5
4 3 5 5 8 4 3 4 2 9 16 10 10 10 15 20 19 21 16 12 11 15 18 15 15 13 13 9 6 6 6 7 5 7 7 8 5 4 3 1 2 3 2 4 2 2 3 4 3
5 5 5 4 5 6 3 1 7 16 18 12 14 16 12 10 11 15 14 14 9 14 16 17 14 10 14 12 9 7 7 5 5 5 5 7 6 6 5 3 3 4 2 2 2 2 2 4 4
3 5 3 4 5 4 4 6 6 10 20 13 7 9 10 15 7 6 9 8 8 11 13 9 7 7 5 6 6 3 3 3 1 4 5 6 7 6 4 3 4 2 3 1 2 2 2 3 3
7 3 4 6 14 2 2 3 7 3 9 6 9 14 12 7 9 3 5 6 10 10 3 4 4 5 7 3 5 3 3 3 3 4 5 6 6 6 4 3 4 3 2 1 2 1 2 2 4
6 5 5 7 11 3 10 2 6 5 0 6 9 9 12 8 5 5 6 10 8 4 5 9 5 2 4 2 1 1 6 5 5 6 5 8 5 4 5 4 4 4 3 3 3 2 1 2 4
5 4 5 12 11 2 8 4 5 6 5 7 9 7 7 4 8 5 11 10 13 10 11 8 9 7 4 3 1 3 2 3 3 6 11 11 6 6 6 4 4 4 4 4 3 1 2 2 1
11 9 8 7 6 6 9 4 6 5 5 4 9 8 7 0 3 7 7 10 12 15 16 14 10 3 3 3 2 2 2 2 5 2 11 12 7 7 4 6 6 6 3 4 4 3 1 2 2
9 7 5 7 3 5 8 3 3 6 6 7 10 8 5 10 11 10 8 11 11 11 10 5 6 6 4 6 4 3 2 1 3 3 4 8 5 4 4 5 2 5 4 5 4 3 4 2 3
4 11 9 8 3 4 3 4 6 4 7 5 5 7 3 7 10 8 7 6 7 7 7 6 4 6 6 7 6 8 4 2 1 2 3 3 6 7 4 5 3 5 4 4 3 3 3 4 4
10 9 14 8 4 3 5 6 7 5 7 7 8 7 9 8 11 7 7 10 6 7 7 6 6 6 3 2 5 3 2 1 3 3 5 6 6 7 5 4 5 5 4 4 5 5 4 3 4
13 4 6 4 4 2 3 4 5 2 4 4 3 9 8 8 8 8 7 6 7 6 6 5 5 2 4 3 3 4 3 4 4 3 2 1 2 1 3 6 5 5 4 3 3 7 6 6 5
3 4 4 5 5 4 3 2 7 6 7 2 8 6 6 6 8 8 8 6 5 5 5 5 6 4 4 5 3 1 3 2 3 2 5 6 5 4 5 3 4 5 6 6 6 6 6 6 5
1 5 6 4 2 4 2 5 6 4 7 11 12 8 6 8 8 8 7 5 5 6 5 4 4 3 2 5 5 4 5 3 4 5 3 2 2 4 5 6 4 7 7 6 6 4 5 6 6
2 4 6 6 2 2 4 4 7 3 7 13 13 7 8 7 9 9 7 6 5 5 5 7 4 3 4 6 5 7 7 6 4 2 1 2 4 4 6 6 6 7 7 8 6 4 6 5 5
4 8 5 1 6 5 2 2 6 4 6 8 6 8 7 6 7 7 7 7 6 6 5 4 2 7 7 8 6 5 4 4 3 2 3 5 6 5 7 7 7 7 7 8 7 4 5 5 6
1 3 5 5 2 6 4 7 7 7 4 9 9 9 9 8 8 10 7 7 5 4 4 5 6 8 7 6 5 5 3 4 5 4 4 7 5 6 7 7 8 9 9 8 6 6 7 7 6
3 3 6 5 4 3 3 7 5 9 2 9 9 9 9 12 12 8 7 6 6 7 8 7 6 7 6 6 5 4 4 3 3 3 6 6 6 7 8 8 8 9 9 9 7 8 7 6 7
Wind_Direction
166 189 233 49 56 62 247 278 178 291 42 20 37 108 108 34 73 200 134 134 135 143 154 152 152 148 149 146 133 126 125 123 122 121 121 118 117 114 110 104 97 86 74 62 49 41 30 14 4
198 191 25 61 83 86 249 249 216 253 95 113 96 111 57 90 89 124 117 149 143 149 147 149 154 148 140 136 135 132 132 131 128 128 127 122 116 110 110 109 107 103 97 80 55 32 18 14 358
42 3 84 91 128 185 167 213 234 256 146 169 118 44 104 141 126 149 140 146 143 149 148 160 152 147 147 143 140 140 140 141 141 138 135 129 121 117 113 104 98 94 89 88 69 18 349 339 340
26 8 38 69 205 258 226 227 215 246 89 63 107 84 83 193 157 146 143 146 145 154 154 159 158 155 151 149 149 150 149 148 149 148 148 149 144 140 133 122 103 186 190 304 326 329 324 302 299
49 52 33 352 287 275 239 273 223 175 107 132 142 155 117 144 127 143 150 152 151 157 158 159 161 158 158 158 157 156 155 155 156 157 162 165 162 162 161 170 202 185 213 260 252 279 323 312 296
51 67 88 300 271 252 257 234 257 125 117 146 92 119 176 141 142 155 154 157 157 155 158 166 167 165 165 163 162 161 161 161 167 171 175 175 173 176 186 196 202 227 232 253 234 248 273 291 298
121 149 234 241 265 274 230 185 197 144 156 157 140 122 161 158 165 164 167 161 161 165 165 171 169 172 170 169 167 166 167 170 174 178 180 182 185 195 206 218 232 241 242 244 250 263 274 286 295
160 154 312 215 255 220 144 121 126 133 178 123 151 166 192 195 172 172 173 166 171 172 174 169 164 169 172 172 172 174 177 182 187 186 193 197 202 218 231 236 251 250 248 254 261 270 280 287 295
175 5 296 318 14 286 136 132 176 162 134 192 182 155 188 158 168 177 175 177 176 177 177 171 170 171 173 177 182 184 186 189 196 194 205 211 205 233 244 240 249 263 247 255 264 271 278 288 295
151 128 243 57 267 195 267 164 157 138 134 57 49 49 136 158 173 182 189 187 189 182 181 177 177 180 175 191 193 180 192 182 195 198 217 222 217 232 239 235 243 259 248 249 266 271 271 283 288
180 189 180 256 261 282 241 224 187 138 230 193 183 152 155 168 181 190 198 197 197 186 177 181 181 181 186 203 189 184 189 178 202 215 212 230 220 236 227 218 244 236 262 250 269 279 299 291 286
148 216 191 250 259 275 185 204 81 173 210 182 177 163 161 178 188 192 200 200 201 186 186 182 186 180 196 204 189 181 189 193 191 227 226 216 230 243 219 199 223 223 219 266 256 269 263 254 241
228 296 312 265 263 286 293 152 156 219 207 188 154 161 173 175 201 202 213 207 200 192 185 187 180 179 197 200 182 172 194 187 200 213 231 221 214 230 212 197 185 243 300 245 251 241 250 274 248
209 135 226 282 201 234 267 140 75 242 36 66 120 83 65 60 27 340 296 209 185 186 182 181 188 180 191 196 184 198 193 204 200 212 214 202 210 218 217 202 281 284 277 303 291 226 238 255 284
191 260 309 344 308 296 190 315 86 90 74 39 87 111 109 59 97 279 289 277 181 169 167 176 174 165 183 181 174 181 176 171 191 214 229 199 196 208 194 206 254 270 295 330 355 347 343 329 330
21 55 306 258 287 280 121 286 31 147 126 134 133 134 188 192 125 124 3 360 290 157 163 172 157 167 194 177 165 171 136 83 60 186 210 218 211 204 184 216 250 282 291 339 356 352 336 325 330
13 307 298 328 315 262 43 359 340 349 91 139 209 199 207 85 69 261 219 24 40 341 53 60 80 165 200 184 132 172 130 73 20 5 314 266 207 199 184 210 250 246 207 149 237 243 176 287 298
288 314 275 320 306 291 77 359 355 317 238 233 266 329 42 66 225 233 130 117 85 342 45 57 354 142 145 306 267 285 56 51 27 9 334 304 252 191 187 194 209 188 172 199 199 215 36 233 277
195 256 280 284 285 100 104 91 310 318 303 292 300 318 91 122 206 162 168 130 120 127 105 91 226 194 165 226 52 51 69 43 29 4 310 297 255 238 195 188 192 196 191 210 222 190 188 300 235
324 313 293 284 309 109 125 151 229 264 280 287 292 290 140 82 76 155 142 148 142 155 150 168 225 215 180 103 92 132 135 76 247 198 277 285 241 223 193 204 202 205 200 220 236 192 168 242 259
275 221 242 236 1 60 144 155 242 244 260 258 257 261 193 174 142 146 124 149 160 133 144 168 151 139 107 120 134 96 57 96 280 285 281 277 256 292 311 301 249 246 203 226 222 196 166 214 280
279 255 264 281 41 260 155 255 316 336 311 255 337 266 202 165 129 143 144 155 95 133 111 125 133 153 156 181 158 166 173 170 237 257 331 344 38 34 8 6 5 290 271 265 243 213 233 144 233
235 268 267 275 216 114 352 83 271 346 337 343 20 7 33 105 127 140 122 116 131 102 122 132 145 137 135 205 147 153 138 265 309 323 337 5 15 11 22 358 327 296 272 269 293 276 242 219 220
267 254 337 47 91 24 308 126 268 282 266 298 38 36 40 71 95 102 99 117 93 107 123 153 169 129 158 201 151 135 244 257 327 331 241 58 281 358 329 319 318 309 313 323 259 256 256 246 236
46 78 339 357 22 232 262 35 234 256 266 353 139 62 15 47 68 81 84 91 108 115 155 156 146 153 160 160 116 220 295 289 184 37 19 8 360 351 340 336 319 310 292 284 277 271 260 242 226
30 128 160 218 173 256 106 231 248 229 313 95 92 108 95 77 87 85 92 118 142 139 136 125 126 147 127 71 37 62 111 91 55 49 42 357 281 319 305 305 285 262 256 248 245 245 246 234 237
198 75 133 99 328 245 180 263 303 43 39 110 120 152 118 117 123 133 151 149 137 151 168 179 183 63 57 97 94 76 78 91 106 140 196 304 301 265 269 303 300 292 288 282 263 255 269 254 247
160 148 85 338 178 231 246 260 232 204 158 131 142 151 144 147 149 148 176 187 187 170 193 71 61 108 104 99 107 117 141 137 172 199 246 261 270 287 309 300 292 283 284 283 279 277 265 266 269
31 94 61 127 146 174 177 252 206 216 198 173 182 157 158 169 178 187 191 206 183 167 131 127 116 111 106 127 152 162 170 195 208 221 259 268 293 303 287 283 285 287 287 285 278 288 272 257 256
283 154 132 134 233 252 170 263 196 192 213 174 170 171 180 178 193 192 193 185 160 144 122 137 127 118 140 165 177 202 230 263 288 262 278 306 297 286 276 279 278 283 286 280 269 280 283 258 262